Regional Weather Roundup
Issued by NWS

Home | Current Version | Previous Version | Graphics & Text | Print | Product List | Glossary On
Versions: 1 2 3 4 5 6 7 8 9 10 11 12 13 14 15 16 17 18 19 20 21 22 23 24 25 26 27 28 29 30 31 32 33 34 35 36 37 38 39 40 41 42 43 44 45 46 47 48 49 50
000
ASUS43 KLSX 260309
RWRMO

WEATHER ROUNDUP FOR MISSOURI
NATIONAL WEATHER SERVICE ST LOUIS MO
900 PM CST WED NOV 25 2020

NOTE: "FAIR" INDICATES FEW OR NO CLOUDS BELOW 12,000 FEET WITH NO
       SIGNIFICANT WEATHER AND/OR OBSTRUCTIONS TO VISIBILITY.
       CURRENT SKY AND/OR WEATHER CONDITIONS ARE NOT AVAILABLE FOR
       CHILLICOTHE AND FARMINGTON.

MOZ001>031-035>038-043-044-053-054-260400-
...NORTHERN AND WESTERN MISSOURI...

CITY           SKY/WX    TMP DP  RH WIND       PRES   REMARKS
KANSAS CTY INT CLOUDY    38  33  82 W7        29.99S
KANSAS C DTWN  CLOUDY    39  33  79 SW6       30.00S
LEE`S SUMMIT   CLOUDY    39  36  89 W8        29.99F
ST JOSEPH      CLOUDY    37  32  82 W5        29.99S
CHILLICOTHE      N/A     41  39  93 W3        29.99S
KIRKSVILLE     CLOUDY    40  39  97 W8        29.96R

$$
MOZ066>068-077>081-088>096-101>105-260400-
...SOUTHWEST MISSOURI...

CITY           SKY/WX    TMP DP  RH WIND       PRES   REMARKS
SPRINGFIELD    CLOUDY    39  37  92 W6        30.02F
JOPLIN         CLEAR     36  34  92 CALM      30.05S

$$
MOZ032>034-039>042-045>050-055>058-069>072-260400-
...CENTRAL MISSOURI...

CITY           SKY/WX    TMP DP  RH WIND       PRES   REMARKS
COLUMBIA       CLOUDY    43  41  93 W10       29.99R
JEFFERSON CITY CLOUDY    45  40  82 W9        30.00R
ROLLA          CLOUDY    43  41  93 W10       30.00R FOG
SEDALIA        CLOUDY    42  39  89 W6        30.01R
WHITEMAN AFB   CLOUDY    41  41  99 W7        29.96S
FT LEONARD WD  CLOUDY    41  41 100 W5        30.00R
OSAGE BEACH    CLOUDY    42  41  96 W8        30.02R

$$
MOZ051-052-059>065-260400-
...EAST CENTRAL MISSOURI...

CITY           SKY/WX    TMP DP  RH WIND       PRES   REMARKS
ST LOUIS INTL  CLOUDY    47  43  86 W16       29.95R
SPIRIT OF STL  CLOUDY    46  43  89 W10       29.96R
ST CHARLES     CLOUDY    47  43  86 W15       29.94R

$$
MOZ072>076-082>087-097>100-106>115-260400-
...SOUTH CENTRAL AND SOUTHEAST MISSOURI...

CITY           SKY/WX    TMP DP  RH WIND       PRES   REMARKS
CAPE GIRARDEAU CLOUDY    50  43  77 SW12      29.98S
FARMINGTON     CLOUDY    46  43  89 VRB5      29.98R
POPLAR BLUFF   CLOUDY    49  41  74 W9        30.01R
WEST PLAINS    CLOUDY    44  40  85 W7        30.02R
$$



USA.gov is the U.S. government's official web portal to all federal, state and local government web resources and services.